Regional Weather Roundup
Issued by NWS Newport/Morehead, NC

Current Version | Previous Version | Graphics & Text | Print | Product List | Glossary On
Versions: 1 2 3 4 5 6 7 8 9 10 11 12 13 14 15 16 17 18 19 20 21 22 23 24 25 26 27 28 29 30 31 32 33 34 35 36 37 38 39 40 41 42 43 44 45 46 47 48 49 50
000 ASUS42 KMHX 300713 RWRMHX WEATHER ROUNDUP FOR EASTERN NORTH CAROLINA NATIONAL WEATHER SERVICE NEWPORT/MOREHEAD CITY NC 300 AM EDT SUN APR 30 2017 NOTE: "FAIR" INDICATES FEW OR NO CLOUDS BELOW 12,000 FEET WITH NO SIGNIFICANT WEATHER AND/OR OBSTRUCTIONS TO VISIBILITY NCZ015>017-031-032-045>047-102-103-300800- NORTH COAST CITY SKY/WX TMP DP RH WIND PRES REMARKS EDENTON PTCLDY 73 69 88 SW12G17 30.16F ELIZABETH CITY CLEAR 71 70 96 SW14 30.14F KITTY HAWK MOSUNNY 72 68 88 SW8G16 30.14S MANTEO PTCLDY 72 69 90 W13G21 30.16S $$ NCZ045>047-081-094-103-104-300800- CENTRAL COAST CITY SKY/WX TMP DP RH WIND PRES REMARKS FRISCO PTCLDY 73 70 90 SW10 30.18F FOG $$ NCZ095-097-098-100-101-300800- SOUTHERN COAST CITY SKY/WX TMP DP RH WIND PRES REMARKS BEAUFORT PTCLDY 72 72 100 SW8 30.19F CEDAR ISLAND NOT AVBL JACKSONVILLE PTCLDY 71 71 100 S5 30.18F PINEY ISLAND SUNNY N/A N/A N/A SW7 30.19F WILMINGTON CLOUDY 73 71 93 S7 30.18F $$ NCZ011>013-027>030-043-044-078>080-089-090>093-098-300800- COASTAL PLAIN CITY SKY/WX TMP DP RH WIND PRES REMARKS AHOSKIE N/A 71 68 92 S6 30.14F CLINTON CLOUDY 71 71 100 S5 30.18S ELIZABETHTOWN CLOUDY 71 71 100 S5 30.18S GOLDSBORO CLOUDY 72 72 100 SW7 30.16S GREENVILLE PTCLDY 72 70 94 SW6 30.18S HAVELOCK NOT AVBL KENANSVILLE CLOUDY 70 70 100 SW3 30.18S KINSTON MOCLDY 71 69 94 CALM 30.18S NEW BERN MOCLDY 70 70 100 CALM 30.20S RICHLANDS CLOUDY 70 70 100 S7 30.19S ROCKY MOUNT CLEAR 71 70 96 S8 30.16S WASHINGTON MOCLDY 70 68 95 SW5 30.18S WHITEVILLE CLOUDY 71 69 96 CALM 30.17F $$ AMZ130-135-150-152-154-156-158-170-250-252-270-ANZ085-086-088-633-658-670-300800- MARINE OBSERVATIONS STATION/POSITION TIME TEMP WIND PRES WAVE SWELL AIR SEA DIR/SP/G HT/PER HT/PER (UTC) (F) (DEG/KT/KT) (MB) (FT/S) (FT/S) CHESAPEAKE LIGHT NOT AVBL 64 E VA BEACH 0650 62 58 210/ 8/ 10 1021.4 4/ 6 3/ 6 DUCK 0648 56 230/ 11/ 14 1020.6 2 E DUCK 0700 59 N/A 2/ 7 OREGON INLET 0642 77 220/ 18/ 22 1020.9 13E OREGON INLT 0648 63 N/A 3/ 5 2/ 7 HATTERAS CG 0648 74 220/ 8/ 11 1021.8 DIAMOND BUOY 0650 76 75 230/ 16/ 17 1022.1 3/ 5 2/ 7 CAPE LOOKOUT 0700 72 210/ 7/ 9 1022.3 BEAUFORT LAB 0648 72 210/ 6/ 8 1021.7 30 SE NEW RVR IN 0608 72 210/ 10/ 14 1022.8 30 SE NEW RVR IN 0643 73 N/A 3/ 5 27 SE WRIGHTSVLE 0608 74 74 200/ 8/ 12 1021.8 5 SE WRIGHTSVLE 0608 72 71 200/ 10/ 12 1022.2 225 S CAPE HAT 0650 74 76 160/ 12/ 14 1024.1 3/ 7 2/ 7 41 SE CHARLESTON 0650 76 76 160/ 10/ 12 1021.6 3/ 7 3/ 7 $$

USA.gov is the U.S. government's official web portal to all federal, state and local government web resources and services.